Location: Notre Dame Regional High School Observatory
(37.3056°N, 89.6097°W)
Time: 13:47:09
(UTC-05:00)

Okean 2 Rocket - Visible Passes

Search period start: 30 April 2016 00:00
Search period end: 10 May 2016 00:00
Orbit: 617 x 642 km, 82.5° (Epoch: 29 April)

Date Brightness Start Highest point End Pass type
(mag) Time Alt. Az. Time Alt. Az. Time Alt. Az.
30 Apr 4.9 21:03:22 10° NNW 21:07:21 32° W 21:11:21 10° SSW visible
01 May 5.9 21:25:05 10° NW 21:27:48 16° W 21:30:30 10° WSW visible
03 May 4.3 20:27:07 10° NNW 20:31:25 46° W 20:35:42 10° SSW visible
04 May 5.7 20:48:26 10° NW 20:51:55 22° W 20:55:23 10° SW visible
05 May 6.4 21:11:19 10° WNW 21:12:17 11° W 21:13:15 10° W visible
08 May 6.1 20:33:50 10° NW 20:36:26 15° W 20:39:02 10° WSW visible
